Home   Weather   Paderborn   Past weeks

Flag for Germany Past Weather in Paderborn, North Rhine-Westphalia, Germany — Yesterday and Last 2 Weeks

Now
45 °F

Light rain. Mostly cloudy.


Feels Like: 38 °F
Forecast: 46 / 50 °F
Wind: 13 mph from Southwest

Location: Kassel / Calden

Current Time: Feb 20, 2017 at 12:30:41 pm

Latest Report: Feb 20, 2017 at 11:50 am


Visibility: N/A

Pressure: 30.01 "Hg

Humidity: 87%

Dew Point: 41 °F

Location of PaderbornLocation

Past Weather in Paderborn — Graph

°F

Paderborn Temperature Yesterday

Maximum temperature yesterday: 43 °F (at 11:50 am)
Minimum temperature yesterday: 30 °F (at 7:50 am)
Average temperature yesterday: 39 °F

High & Low Weather Summary for the Past Weeks

 TemperatureHumidityPressure
High48 °F (Feb 14, 2:50 pm)100% (Feb 6, 7:20 am)30.54 "Hg (Feb 6, 7:20 am)
Low25 °F (Feb 8, 10:20 pm)43% (Feb 14, 3:20 pm)29.62 "Hg (Feb 5, 11:20 am)
Average34 °F84%30.25 "Hg
* Reported Feb 5 11:20 am — Feb 20 11:20 am, Paderborn, Weather by CustomWeather, © 2017

Note: Actual official high and low records may vary slightly from our data, if they occured in-between our weather recording intervals... More about our weather records

Advertising

Paderborn Weather History for the Previous 24 Hours

Scroll right to see more
 ConditionsComfort  
Time TempWeatherWind HumidityBarometerVisibility
11:20 am
Mon, Feb 20
45 °FPartly sunny.13 mph87%30.01 "HgN/A
10:50 am45 °FBroken clouds.15 mph87%30.01 "HgN/A
10:20 am45 °FBroken clouds.15 mph87%30.01 "HgN/A
9:50 am45 °FBroken clouds.12 mph87%30.04 "HgN/A
9:20 am43 °FMore clouds than sun.14 mph87%30.04 "Hg6 mi
8:50 am43 °FMore clouds than sun.12 mph87%30.07 "Hg6 mi
8:20 am43 °FMore clouds than sun.8 mph87%30.07 "Hg6 mi
7:50 am43 °FMore clouds than sun.9 mph87%30.07 "Hg6 mi
7:20 am41 °FOvercast.10 mph93%30.07 "Hg6 mi
6:50 am41 °FPassing clouds.8 mph93%30.07 "Hg6 mi
8:50 pm
Sun, Feb 19
39 °FLight rain. Fog.2 mph100%30.12 "Hg2 mi
8:20 pm39 °FDrizzle. Fog.2 mph100%30.12 "Hg1 mi
7:50 pm39 °FDrizzle. Fog.5 mph100%30.12 "Hg3 mi
7:20 pm39 °FMostly cloudy.6 mph100%30.09 "Hg4 mi
6:50 pm39 °FLight rain. Mostly cloudy.5 mph100%30.09 "Hg3 mi
6:20 pm39 °FLight rain. Fog.5 mph100%30.09 "Hg3 mi
5:50 pm41 °FLight rain. Low clouds.7 mph87%30.09 "Hg5 mi
5:20 pm41 °FOvercast.5 mph87%30.09 "Hg6 mi
4:50 pm39 °FDrizzle. Overcast.3 mph93%30.09 "Hg6 mi
4:20 pm41 °FOvercast.5 mph87%30.09 "HgN/A
3:50 pm41 °FOvercast.8 mph81%30.09 "HgN/A
3:20 pm41 °FPartly sunny.8 mph81%30.09 "HgN/A
2:50 pm43 °FLight rain. Partly sunny.10 mph76%30.09 "HgN/A
2:20 pm43 °FBroken clouds.9 mph76%30.09 "HgN/A
1:50 pm43 °FLight rain. Broken clouds.9 mph76%30.12 "HgN/A
1:20 pm43 °FBroken clouds.7 mph76%30.12 "HgN/A
12:50 pm43 °FLight rain. Broken clouds.8 mph76%30.12 "HgN/A
12:20 pm43 °FPartly sunny.9 mph76%30.15 "HgN/A
Weather by CustomWeather, © 2017

See weather overviewHow to use our weather pages